SCP
0 0 0 0 0 0 0 0 0 0 0 0 0 0 0 0 0 0 0 0 0 1 1 1 1 1 0 0 0 0 1 1 0 0 1 1 1 1
0 0 0 0 0 0 0 0 0 0 0 0 0 0 0 0 0 0 0 0 0 0 1 1 1 0 0 0 0 0 0 0 0 0 0 1 1 1
0 0 0 0 0 0 0 0 0 0 0 0 0 0 0 0 0 0 0 0 0 0 0 0 0 0 0 0 0 0 0 0 0 0 0 0 1 1
0 0 0 0 0 0 0 0 0 0 0 0 0 0 0 0 0 0 0 0 0 0 0 0 0 0 0 0 0 0 0 0 0 0 0 0 0 0
0 0 0 0 0 0 0 0 0 0 0 0 0 0 0 0 0 0 0 0 0 0 0 0 0 0 0 0 0 0 0 0 0 0 0 0 0 0
0 0 0 0 0 0 0 0 0 0 0 0 0 0 0 0 0 0 0 0 0 0 0 0 0 0 0 0 0 0 0 0 0 0 0 0 0 0
0 0 0 0 0 0 0 0 0 0 0 0 0 0 0 0 0 0 0 0 0 0 0 0 0 0 0 0 0 0 0 0 0 0 0 0 0 0
0 0 0 0 0 0 0 0 0 0 0 0 0 0 0 0 0 0 0 0 0 0 0 0 0 0 0 0 0 0 0 0 0 0 0 0 0 0
0 0 0 0 0 0 0 0 0 0 0 0 0 0 0 0 0 0 0 0 0 0 0 0 0 0 0 0 0 0 0 0 0 0 0 0 0 0
0 0 0 0 0 0 0 0 0 0 0 0 0 0 0 0 0 0 0 0 0 0 0 0 0 0 0 0 0 0 0 0 0 0 0 0 0 0
0 0 0 0 0 0 0 0 0 0 0 0 0 0 0 0 0 0 0 0 0 0 0 0 0 0 0 0 0 0 0 0 0 0 0 0 0 0
0 0 0 0 0 0 0 0 0 0 0 0 0 0 0 0 0 0 0 0 0 0 0 0 0 0 0 0 0 0 0 0 0 0 0 0 0 0
0 0 0 0 0 0 0 0 0 0 0 0 0 0 0 0 0 0 0 0 0 0 0 0 0 0 0 0 0 0 0 0 0 0 0 0 0 0
0 0 0 0 0 0 0 0 0 0 0 0 0 0 0 0 0 0 0 0 0 0 0 0 0 0 0 0 0 0 0 0 0 0 0 0 0 0
0 0 0 0 0 0 0 0 0 0 0 0 0 0 0 0 0 0 0 0 0 0 0 0 0 0 0 0 0 0 0 0 0 0 0 0 0 0
0 0 0 0 0 0 0 0 0 0 0 0 0 0 0 0 0 0 0 0 0 0 0 0 0 0 0 0 0 0 0 0 0 0 0 0 0 0
0 0 0 0 0 0 0 0 0 0 0 0 0 0 0 0 0 0 0 0 0 0 0 0 0 0 0 0 0 0 0 0 0 0 0 0 0 0
0 0 0 0 0 0 0 0 0 0 0 0 0 0 0 0 0 0 0 0 0 0 0 0 0 0 0 0 0 0 0 0 0 0 0 0 0 0
0 0 0 0 0 0 0 0 0 0 0 0 0 0 0 0 0 0 0 0 0 0 0 0 0 0 0 0 0 0 0 0 0 0 0 0 0 0
0 0 0 0 0 0 0 0 0 0 0 0 0 0 0 0 0 0 0 0 0 0 0 0 0 0 0 0 0 0 0 0 0 0 0 0 0 0
0 0 0 0 0 0 0 0 0 0 0 0 0 0 0 0 0 0 0 0 0 0 0 0 0 0 0 0 0 0 0 0 0 0 0 0 0 0
0 0 0 0 0 0 0 0 0 0 0 0 0 0 0 0 0 0 0 0 0 0 0 0 0 0 0 0 0 0 0 0 0 0 0 0 0 0
0 0 0 0 0 0 0 0 0 0 0 0 0 0 0 0 0 0 0 0 0 0 0 0 0 0 0 0 0 0 0 0 0 0 0 0 0 0
Wind_Speed
4 4 4 3 3 3 3 3 4 6 6 4 3 3 3 3 5 3 3 6 9 10 10 10 9 9 9 10 10 9 9 9 8 9 9 10 11 11
4 4 4 3 3 3 3 4 4 5 7 4 4 5 5 6 8 5 4 8 10 11 11 11 10 10 10 10 10 10 10 9 10 10 10 11 11 11
5 5 5 5 4 4 4 4 4 5 7 6 4 5 5 6 6 5 4 4 5 11 12 11 11 11 11 11 10 10 10 10 11 10 11 11 11 11
5 6 6 5 5 4 4 5 5 5 6 8 6 5 6 6 6 6 6 5 4 9 12 11 11 10 10 10 10 10 10 10 10 10 11 11 11 11
6 6 7 6 6 5 5 5 5 6 5 7 7 5 5 5 5 6 6 5 5 7 9 9 9 9 9 10 10 10 9 10 10 10 11 11 11 12
7 7 7 7 7 7 7 6 6 6 6 6 7 6 5 5 4 4 5 4 5 5 7 7 8 9 9 10 10 10 9 10 11 11 11 10 11 11
7 7 8 10 11 9 7 6 6 6 6 6 6 6 5 4 4 4 5 4 4 4 4 4 4 4 5 8 9 10 10 11 11 12 11 11 10 10
8 8 8 9 11 13 14 13 11 8 7 7 6 7 7 5 4 5 5 5 5 3 3 4 3 4 4 4 8 10 11 11 11 11 11 12 11 10
8 8 8 8 10 7 10 13 12 14 14 9 8 8 7 6 6 6 6 6 6 3 3 5 3 5 5 5 9 10 11 11 11 11 11 12 12 11
8 8 8 8 8 9 8 8 8 9 10 8 8 8 8 6 6 7 7 6 6 4 3 5 4 4 5 4 8 10 10 10 11 11 11 11 10 11
8 8 9 8 12 14 9 8 8 8 11 13 13 12 14 14 10 5 5 5 7 5 2 4 4 3 4 4 6 9 9 10 11 11 11 11 10 9
6 7 11 12 14 14 8 7 8 8 7 8 8 9 9 9 12 8 6 6 6 5 3 3 3 2 4 3 3 3 5 8 11 11 11 11 10 6
6 6 7 14 15 14 11 7 10 9 6 6 6 6 5 5 6 5 5 6 6 6 3 2 3 3 4 4 3 3 3 4 4 6 9 10 10 8
6 6 8 14 15 14 10 11 13 10 4 4 5 5 5 5 4 4 5 5 6 7 5 4 4 4 4 5 5 3 3 3 3 4 4 7 9 10
6 11 14 14 13 9 10 12 9 4 4 4 5 5 4 4 4 4 4 4 5 5 5 6 5 4 5 5 5 4 4 4 3 4 3 4 4 4
6 9 12 12 9 9 8 6 4 4 4 4 5 4 3 3 4 4 4 4 4 4 4 5 5 5 5 6 5 5 4 4 3 3 3 4 3 4
7 5 4 5 4 4 4 4 3 4 4 4 4 4 4 4 4 3 3 4 5 5 4 3 3 3 5 5 5 5 5 4 4 4 4 4 4 4
7 4 4 5 5 5 4 4 4 4 4 4 4 4 4 4 5 4 4 4 5 5 4 4 3 3 3 4 5 6 5 5 4 4 4 5 5 4
4 4 4 4 5 5 5 4 4 4 3 3 3 4 4 4 4 5 4 4 5 5 4 4 3 3 5 6 4 5 4 4 3 4 4 5 5 5
4 4 4 4 4 5 5 5 5 4 3 4 4 4 4 4 5 5 5 5 5 5 5 4 4 4 5 6 5 4 5 5 4 4 4 4 4 5
4 4 4 5 5 5 5 5 5 4 4 4 4 4 4 4 5 5 5 8 6 5 5 5 5 6 4 3 4 4 3 5 6 4 4 3 3 3
4 5 5 5 5 5 5 5 5 4 4 4 4 4 4 4 5 6 5 5 5 5 5 5 4 3 3 4 5 5 4 3 4 6 6 6 4 4
5 5 5 5 5 5 5 5 6 5 4 4 4 4 4 5 5 5 5 5 4 5 4 4 3 3 4 4 5 4 4 3 2 2 3 5 6 7
Wind_Direction
294 294 289 284 281 277 273 267 271 282 282 278 283 295 305 299 281 260 246 268 272 271 268 266 264 263 265 262 261 261 260 258 253 249 244 242 238 236
292 292 292 290 282 279 273 270 265 268 277 281 287 294 297 294 288 279 258 274 272 270 266 264 261 256 256 256 255 255 254 252 247 249 248 247 244 243
297 295 291 290 283 274 268 263 262 261 271 282 282 287 288 292 289 283 271 258 257 265 264 261 258 253 251 250 251 250 250 252 250 247 249 247 246 246
296 294 290 289 286 281 273 266 262 259 263 277 280 281 280 280 282 279 276 268 259 266 262 258 255 252 251 250 249 250 251 252 250 248 249 248 247 245
290 286 285 283 281 280 275 270 266 266 262 268 275 275 276 274 282 281 275 266 266 268 266 261 256 255 254 252 250 248 247 250 251 250 251 250 247 245
285 282 280 277 276 277 272 267 267 265 262 264 270 271 273 270 270 270 279 267 266 271 268 265 263 263 260 256 251 248 247 250 252 251 250 249 247 246
285 283 280 280 279 279 277 272 268 263 261 261 264 268 267 267 265 269 272 276 275 261 258 259 257 253 252 253 250 246 247 249 251 250 250 247 244 244
289 287 283 281 283 287 288 287 281 273 268 263 264 260 263 262 267 266 272 270 276 264 261 267 256 255 252 241 248 250 248 249 250 248 248 246 243 243
289 290 291 289 291 281 284 287 285 282 275 268 264 264 266 260 261 265 266 271 267 258 269 279 272 265 260 260 258 253 250 247 249 250 249 245 239 241
289 286 285 285 284 284 278 278 275 275 273 268 259 261 263 260 251 257 265 276 279 269 259 271 273 272 276 267 261 258 257 254 251 251 253 247 242 242
287 289 289 284 288 291 286 281 281 279 280 277 271 268 269 269 265 260 258 266 274 273 253 252 264 280 282 272 261 257 258 255 251 251 251 249 243 238
290 289 291 292 293 293 284 278 279 281 285 288 286 279 273 271 268 252 243 253 267 271 250 246 261 281 286 277 265 260 260 260 256 254 253 251 245 233
294 294 294 299 299 298 294 280 281 289 285 282 281 276 270 263 257 249 241 243 254 263 256 251 259 261 259 275 280 268 257 257 249 245 246 249 246 236
293 293 294 300 302 303 298 294 295 296 284 282 280 276 276 275 267 259 253 252 252 257 257 252 255 255 260 267 271 271 264 258 254 253 239 242 242 240
295 299 303 305 306 301 298 300 300 289 279 276 274 275 276 282 284 280 276 267 264 260 257 257 250 250 255 259 263 263 272 265 245 247 247 237 230 223
302 303 309 310 306 301 300 299 290 279 279 272 273 278 284 282 276 277 277 280 278 272 269 259 251 247 258 258 255 259 256 257 248 238 244 249 243 232
311 306 305 308 305 304 302 294 287 284 282 277 279 282 282 282 281 275 273 276 271 272 279 279 270 266 261 254 250 248 251 253 248 242 240 251 246 237
320 313 312 315 314 312 307 302 298 288 280 278 277 277 279 279 281 282 273 265 268 270 272 273 279 292 292 276 244 247 250 252 251 244 235 245 251 241
325 313 311 313 313 312 309 306 305 300 292 283 279 277 278 278 278 277 271 266 267 267 270 267 256 254 267 275 268 240 246 251 252 252 244 241 249 250
318 313 312 314 313 311 309 307 306 302 295 289 281 274 270 271 273 270 266 263 266 270 271 265 257 252 253 261 270 271 253 244 244 251 255 253 253 262
316 313 313 313 310 308 307 306 303 294 291 288 280 275 270 268 268 267 266 268 268 264 262 265 263 273 271 263 264 268 264 254 254 250 245 252 255 252
314 312 311 310 308 305 304 303 301 295 290 284 280 277 273 267 265 266 265 264 262 262 266 270 265 260 250 244 251 260 272 283 280 278 270 256 240 234
310 309 308 307 305 303 301 300 300 295 288 283 281 277 273 270 267 264 262 260 262 264 267 270 266 258 256 245 246 255 262 270 279 289 287 285 275 271